Regional Weather Roundup
Issued by NWS Columbia, SC

Home | Current Version | Previous Version | Text Only | Print | Product List | Glossary On
Versions: 1 2 3 4 5 6 7 8 9 10 11 12 13 14 15 16 17 18 19 20 21 22 23 24 25 26 27 28
000
ASUS42 KCAE 251510
RWRCAE
REGIONAL WEATHER ROUNDUP
NATIONAL WEATHER SERVICE COLUMBIA SC
1100 AM EDT THU AUG 25 2016

NOTE: "FAIR" INDICATES FEW OR NO CLOUDS BELOW 12,000 FEET WITH NO
SIGNIFICANT WEATHER AND/OR OBSTRUCTIONS TO VISIBILITY.

NOT ALL STATIONS ARE QUALITY CONTROLLED BY THE NATIONAL
WEATHER SERVICE. USE DATA WITH CAUTION...ESPECIALLY
DEWPOINT OBSERVATIONS.

SCZ001>056-GAZ040-063>065-077-251600-
...UPSTATE SOUTH CAROLINA...

CITY           SKY/WX    TMP DP  RH WIND       PRES   REMARKS
ANDERSON       MOSUNNY   82  69  64 SW8       30.21S
LIBERTY        SUNNY     82  71  68 W5        30.21S
SPARTANBURG    SUNNY     81  68  65 W5        30.20S
CLEMSON        SUNNY     83  70  64 MISG      30.23S
GREENVILLE     SUNNY     82  69  64 SW7       30.22S
GREENWOOD      SUNNY     84  66  54 VRB3      30.22S
GREER          SUNNY     83  69  62 W7        30.20S
ROCK HILL      SUNNY     85  66  53 SW6       30.21R
CHESTER        CLOUDY    82  64  54 CALM      30.21S
LAURENS        SUNNY     82  70  65 S5        30.21R


...CENTRAL SOUTH CAROLINA...

CITY           SKY/WX    TMP DP  RH WIND       PRES   REMARKS
COLUMBIA APT   MOSUNNY   86  65  49 CALM      30.19R
COLUMBIA OWENS MOSUNNY   86  65  49 CALM      30.20S
MCENTIRE ANGB  MOSUNNY   85  64  49 VRB2      30.19F
ORANGEBURG     MOSUNNY   84  65  52 CALM      30.20R
SUMTER SHAW    SUNNY     83  64  51 S1        30.18R
NEWBERRY       SUNNY     84  68  58 CALM      30.23R
AIKEN          PTSUNNY   82  64  54 SW3       30.24S
MANNING        FAIR      81  64  57 N6        30.20R
LANCASTER      SUNNY     82  68  61 S5        30.20S
WINNSBORO      SUNNY     82  68  61 W3        30.21R


...EASTERN AND COASTAL SOUTH CAROLINA...

CITY           SKY/WX    TMP DP  RH WIND       PRES   REMARKS
N MYRTLE BCH   CLOUDY    85  72  65 E6        30.17R
CONWAY         PTSUNNY   82  70  65 CALM      30.18S
MARION         FAIR      81  66  61 CALM      30.20R
HARTSVILLE     FAIR      82  63  51 CALM      30.19F
FLORENCE       SUNNY     85  63  47 VRB3      30.20R
DARLINGTON     SUNNY     84  65  52 CALM      30.20S
CHARLESTON APT MOSUNNY   86  65  49 N10       30.17S
MOUNT PLEASANT FAIR      84  70  61 N7        30.17S
WALTERBORO     MOSUNNY   84  64  51 NE7       30.20R
BEAUFORT       MOSUNNY   85  67  54 N10       30.18R


...EASTERN GEORGIA...

CITY           SKY/WX    TMP DP  RH WIND       PRES   REMARKS
AUGUSTA BUSH F MOSUNNY   86  66  51 CALM      30.19S
AUGUSTA DANIEL PTSUNNY   84  68  58 VRB6      30.21S
THOMSON        SUNNY     85  73  67 MISG      30.24F
WASHINGTON     FAIR      86  72  62 CALM      30.21S
CLAXTON        FAIR      85  68  56 N10       30.18S
STATESBORO     SUNNY     84  69  60 NE5       30.20S
SAVANNAH       MOSUNNY   86  67  52 NE10      30.17S


...SOUTHERN NORTH CAROLINA...

CITY           SKY/WX    TMP DP  RH WIND       PRES   REMARKS
CHARLOTTE      MOSUNNY   85  65  51 SW3       30.21R
MONROE         PTSUNNY   83  65  54 SW5       30.20R
WADESBORO      SUNNY     84  63  49 CALM      30.19S
ROCKINGHAM     SUNNY     83  64  53 CALM      30.19S
RUTHERFORDTON    N/A     80  70  71 CALM      30.23R
ASHEVILLE      SUNNY     78  67  68 N7        30.27F HAZE

$$




USA.gov is the U.S. government's official web portal to all federal, state and local government web resources and services.